Vorticity
22 24 11 9 9 9 8 8 9 10 9 9 11 9 11 10 15 11 13 11 5 2 10 9 8 6 8 8 14 29 -5 21 21 21 19 13 9 19 -11 16 7 30 13 9 5 13 5 14 3 11 12 10 9 9
23 7 8 9 8 7 8 8 8 8 6 8 8 10 8 9 11 10 11 15 15 14 5 8 7 9 8 9 9 10 17 19 24 35 23 14 13 13 29 -3 22 -3 23 32 32 27 10 8 8 9 8 7 7 7
6 8 9 8 7 8 8 6 8 7 8 6 8 8 8 8 10 10 11 8 3 36 -8 4 6 9 8 7 9 8 12 16 17 10 6 16 19 22 27 2 24 -7 6 22 9 14 6 8 8 7 7 7 7 7
8 9 9 6 7 7 5 5 6 6 10 6 6 9 9 6 7 13 11 10 19 -13 7 4 4 5 7 10 11 9 11 10 13 14 11 16 15 13 -1 8 3 16 13 7 10 7 9 6 8 7 7 7 7 7
9 8 7 6 5 6 6 4 5 6 8 10 5 4 8 13 7 1 14 13 13 17 1 2 9 3 2 4 8 18 9 12 21 19 9 -0 -10 -19 0 3 -1 10 9 12 -2 10 9 7 8 8 8 8 8 8
8 7 7 4 3 6 4 5 7 9 2 3 9 12 9 11 19 10 -4 11 25 17 15 18 -16 2 17 -2 -4 -2 12 18 18 15 2 -10 15 33 -5 -21 10 10 10 10 11 11 10 8 8 7 8 7 8 9
7 7 4 5 8 6 7 10 8 6 6 10 7 4 13 2 19 15 7 4 34 11 17 11 12 18 4 24 7 1 6 3 -2 13 13 5 22 5 -17 1 11 11 11 9 9 10 11 12 10 9 9 8 9 8
5 4 6 7 7 9 10 10 10 10 7 13 16 12 24 3 11 18 19 -2 -9 23 26 -24 6 14 11 33 27 6 -5 -10 4 5 -13 10 6 24 -17 17 11 11 10 10 9 8 8 9 10 11 10 9 10 10
6 7 8 8 9 9 10 10 8 12 7 12 17 14 14 14 8 11 19 14 2 -4 38 -8 22 11 11 23 13 20 9 12 -12 13 6 -10 -8 -20 -17 32 10 12 11 9 9 11 10 9 9 8 9 9 10 12
8 9 10 10 11 13 14 13 13 16 11 13 15 22 6 17 1 3 19 19 -6 1 -14 15 17 17 18 31 20 24 8 7 12 -16 36 6 -12 -25 -28 39 14 10 11 13 13 8 10 10 12 11 11 10 8 9
10 10 12 10 11 12 11 14 16 15 16 10 12 17 5 26 -5 9 14 50 -6 15 -25 14 17 12 10 24 16 17 9 8 13 -14 38 9 -2 -35 15 20 29 13 10 8 8 14 11 9 9 11 12 10 10 10
10 12 14 14 15 19 21 20 18 22 18 12 11 32 -0 17 1 30 3 -4 12 -19 15 16 16 12 2 36 19 8 12 15 16 16 14 16 -50 2 20 16 17 20 15 13 12 11 12 9 11 11 12 12 11 10
14 14 12 16 19 18 21 18 13 16 17 13 19 21 11 -13 22 -14 -22 -12 6 17 20 20 18 13 10 14 11 19 5 4 25 12 -3 -40 4 19 20 25 21 16 15 18 20 16 11 11 9 8 9 9 8 11
8 10 11 10 8 13 12 24 28 22 27 11 2 12 12 18 -4 10 12 11 5 20 5 23 15 11 20 9 20 18 -3 27 6 -5 -21 9 16 20 18 16 15 17 15 14 12 14 14 13 11 9 9 12 12 10
7 5 4 9 11 7 10 12 17 28 30 19 11 10 19 9 6 6 10 24 10 15 36 2 22 8 13 13 14 5 15 10 -9 -37 13 15 19 21 21 17 15 14 14 14 14 13 12 12 14 16 15 11 12 11
4 4 6 6 6 9 5 6 7 13 30 23 38 10 3 4 1 2 1 16 14 9 39 22 6 10 6 9 8 -0 14 6 -35 15 16 12 12 9 10 11 12 12 12 13 14 14 14 14 14 13 14 15 15 15
5 6 6 4 10 6 11 2 11 25 22 23 1 2 -2 -4 -4 2 3 8 13 21 36 35 -6 21 13 6 12 1 -11 11 14 16 15 10 10 10 9 10 9 10 10 11 11 12 12 13 13 14 16 17 18 17
9 8 8 11 4 13 17 10 14 -0 8 4 8 6 2 -1 -4 -6 -1 7 20 25 45 20 -1 13 13 0 -4 16 17 15 15 13 12 10 10 11 10 10 9 10 11 11 12 13 14 13 14 13 13 12 11 13
6 14 9 11 11 14 23 -11 13 2 7 4 11 6 4 2 -0 -3 -6 10 12 18 7 37 9 -8 14 9 9 11 10 8 8 11 12 11 9 10 9 10 9 10 11 11 12 12 13 13 12 12 12 12 13 13
3 2 17 7 17 6 23 3 21 15 10 11 9 9 14 25 10 3 -2 9 11 9 13 7 9 4 3 7 8 11 12 9 7 8 9 11 9 11 9 9 10 10 11 12 13 13 13 13 12 12 12 13 13 13
14 9 9 13 16 7 21 4 20 6 10 9 14 17 21 21 16 8 -13 11 17 4 7 10 15 24 12 7 8 8 12 10 6 8 8 8 9 9 9 10 11 11 11 12 12 14 13 13 13 13 11 12 13 15
14 8 12 12 11 16 -4 14 14 11 7 12 17 21 6 14 17 5 -8 22 13 5 11 9 11 28 3 13 19 9 8 13 8 8 10 9 9 11 12 10 10 11 13 14 14 14 14 12 13 12 14 16 18 21
15 2 18 6 17 18 -15 16 18 6 15 16 13 18 8 21 9 6 -17 17 13 15 12 6 17 26 -8 4 20 7 10 11 10 9 9 9 10 10 11 12 14 12 17 16 14 15 13 11 13 17 20 21 22 21
12 16 4 2 18 15 9 18 13 15 9 13 9 14 13 17 10 8 -22 17 7 9 10 16 27 18 -0 8 16 2 12 9 11 9 7 7 9 11 13 16 20 17 17 14 13 11 12 14 20 22 21 21 18 15
21 12 7 10 11 11 14 18 10 4 5 15 13 15 19 16 19 -14 7 10 10 11 8 19 16 1 1 13 5 11 8 9 9 11 10 10 10 13 16 20 21 14 12 10 10 13 15 19 23 19 19 15 11 12
15 6 15 15 9 18 17 20 4 12 3 9 14 15 20 7 19 -30 13 13 9 9 11 20 11 3 9 11 7 9 11 9 10 12 12 13 13 15 17 15 14 13 11 13 13 16 19 19 18 16 15 13 12 13
20 13 7 16 15 15 16 15 9 12 14 -6 14 24 18 7 9 1 12 10 13 19 18 11 2 13 9 10 9 10 9 9 10 12 12 12 16 17 15 14 13 11 15 16 18 19 18 16 15 15 14 15 13 12
13 13 10 13 17 13 12 13 15 14 10 -4 14 21 -11 8 4 12 8 10 14 21 7 -0 12 10 8 11 9 10 9 8 9 9 11 13 16 17 16 13 13 18 19 20 18 17 16 15 15 15 14 14 14 13
10 16 10 10 14 14 16 14 9 10 6 5 8 7 1 -0 0 13 8 10 11 18 21 3 7 12 7 10 9 10 8 8 7 8 11 13 20 19 13 14 17 19 19 18 18 17 17 17 16 17 17 18 18 18
5 16 12 6 14 10 16 19 11 8 13 9 5 7 7 3 -7 17 5 9 14 20 17 4 8 9 7 9 9 10 9 9 10 11 12 17 17 12 11 16 19 18 14 17 18 20 20 19 20 21 21 21 21 20
6 8 19 8 10 11 15 20 14 7 15 11 7 10 8 6 -9 17 11 12 17 21 11 5 10 7 8 8 9 9 12 10 12 15 17 17 12 9 14 20 18 15 18 17 14 14 15 19 19 20 20 21 21 20
11 5 12 17 6 11 13 18 19 9 10 8 7 14 5 1 -2 18 10 14 21 17 4 8 8 8 9 10 10 10 12 11 11 14 17 15 9 10 17 20 15 17 17 13 13 16 17 19 21 21 22 22 22 21
14 8 7 17 9 11 10 22 20 22 -1 5 6 13 3 1 3 15 11 14 19 9 6 10 7 10 10 10 10 12 12 10 12 17 18 12 8 13 18 17 14 18 14 13 14 16 16 19 21 21 22 23 22 23
Height
3067 3065 3062 3062 3059 3058 3056 3053 3052 3047 3045 3036 3032 3027 3021 3018 3014 3009 3000 2995 2992 2987 2985 2980 2976 2970 2965 2959 2954 2950 2943 2939 2935 2933 2935 2937 2938 2938 2938 2936 2932 2928 2926 2926 2928 2933 2942 2941 2941 2940 2939 2939 2940 2940
3066 3066 3065 3063 3061 3059 3058 3054 3051 3049 3045 3039 3033 3030 3026 3020 3015 3009 3004 2999 2995 2992 2988 2985 2979 2976 2972 2966 2961 2955 2952 2947 2943 2941 2943 2944 2945 2945 2942 2943 2941 2940 2941 2940 2940 2945 2944 2943 2941 2939 2939 2940 2940 2939
3066 3067 3067 3067 3061 3059 3058 3055 3052 3049 3046 3041 3037 3031 3026 3021 3018 3013 3006 3002 2999 2995 2992 2989 2984 2981 2976 2971 2968 2964 2959 2956 2953 2951 2949 2950 2951 2951 2949 2950 2948 2947 2946 2946 2946 2947 2945 2943 2942 2940 2939 2939 2938 2936
3070 3069 3069 3068 3062 3059 3059 3056 3052 3050 3047 3044 3038 3033 3028 3024 3020 3014 3010 3004 3000 2997 2994 2992 2988 2985 2980 2977 2973 2969 2967 2964 2962 2959 2956 2955 2954 2957 2956 2957 2953 2953 2952 2950 2949 2948 2946 2944 2943 2941 2940 2938 2936 2934
3072 3071 3069 3068 3065 3063 3059 3056 3054 3052 3049 3044 3039 3034 3029 3026 3021 3016 3011 3006 3002 3001 2997 2994 2991 2988 2984 2981 2977 2975 2973 2971 2968 2964 2962 2960 2960 2961 2960 2959 2958 2957 2955 2953 2951 2949 2947 2945 2942 2940 2938 2935 2932 2930
3073 3073 3071 3069 3066 3064 3060 3057 3055 3052 3049 3044 3040 3036 3032 3026 3021 3017 3012 3008 3003 3000 2998 2996 2994 2991 2988 2986 2984 2982 2979 2976 2973 2969 2966 2966 2965 2965 2966 2964 2963 2960 2957 2954 2951 2949 2946 2943 2940 2937 2935 2932 2929 2926
3073 3073 3072 3069 3068 3065 3062 3058 3054 3051 3047 3043 3040 3036 3031 3027 3021 3018 3015 3012 3006 3003 3000 2998 2996 2994 2990 2987 2986 2985 2982 2979 2977 2973 2971 2970 2969 2967 2967 2967 2964 2961 2957 2954 2950 2947 2944 2941 2937 2933 2931 2927 2924 2920
3075 3075 3073 3071 3068 3065 3061 3057 3053 3049 3046 3042 3038 3036 3031 3028 3024 3020 3016 3013 3009 3005 3002 3001 2998 2993 2990 2986 2985 2984 2983 2980 2978 2976 2975 2973 2971 2970 2972 2968 2964 2959 2956 2952 2948 2944 2940 2937 2933 2930 2926 2922 2919 2916
3079 3077 3074 3072 3068 3064 3060 3055 3051 3048 3045 3042 3038 3035 3033 3030 3026 3021 3017 3013 3011 3012 3007 3004 2998 2993 2990 2986 2984 2983 2982 2981 2980 2978 2976 2975 2972 2972 2972 2965 2960 2956 2951 2947 2944 2940 2936 2932 2929 2925 2921 2917 2913 2910
3080 3078 3074 3071 3067 3063 3058 3054 3050 3047 3044 3041 3038 3034 3031 3029 3027 3023 3018 3016 3014 3011 3006 3003 2999 2994 2991 2985 2983 2982 2981 2980 2979 2980 2976 2975 2973 2972 2968 2964 2958 2952 2948 2943 2939 2936 2931 2928 2924 2920 2916 2912 2907 2904
3080 3077 3074 3071 3066 3062 3057 3053 3049 3046 3044 3041 3038 3035 3034 3030 3028 3025 3024 3019 3017 3013 3008 3004 3000 2995 2991 2987 2984 2983 2982 2981 2980 2981 2977 2975 2973 2970 2965 2958 2953 2948 2943 2939 2934 2930 2926 2921 2916 2913 2910 2905 2900 2896
3081 3078 3075 3071 3066 3062 3057 3052 3048 3045 3043 3041 3039 3036 3035 3032 3032 3033 3029 3025 3021 3018 3013 3006 3001 2997 2993 2988 2986 2985 2984 2983 2982 2980 2978 2975 2973 2967 2958 2952 2947 2942 2937 2933 2928 2923 2919 2915 2911 2906 2902 2898 2893 2888
3083 3081 3077 3073 3069 3064 3058 3053 3049 3046 3043 3042 3040 3038 3039 3041 3041 3038 3036 3032 3028 3022 3015 3008 3003 2999 2994 2990 2988 2987 2987 2986 2984 2981 2980 2976 2970 2961 2953 2947 2942 2937 2932 2927 2922 2917 2912 2908 2904 2898 2894 2889 2884 2880
3086 3083 3079 3076 3071 3066 3062 3057 3052 3048 3045 3044 3045 3046 3049 3051 3051 3047 3042 3037 3031 3023 3018 3011 3006 3002 2998 2995 2992 2991 2991 2987 2985 2983 2981 2973 2964 2956 2949 2943 2937 2931 2926 2921 2916 2911 2905 2900 2896 2891 2885 2879 2874 2870
3088 3085 3082 3078 3074 3069 3064 3060 3056 3051 3048 3047 3051 3056 3058 3057 3053 3049 3044 3038 3031 3025 3018 3013 3007 3005 3001 2999 2999 2998 2995 2993 2991 2987 2978 2969 2961 2953 2946 2939 2933 2927 2922 2916 2910 2905 2899 2893 2888 2883 2877 2871 2865 2860
3090 3088 3085 3080 3076 3072 3069 3066 3064 3058 3051 3054 3057 3061 3060 3058 3054 3050 3044 3038 3032 3025 3018 3013 3010 3008 3006 3006 3005 3002 3000 2996 2990 2982 2975 2967 2960 2953 2946 2939 2932 2925 2918 2912 2905 2899 2892 2886 2880 2874 2869 2862 2856 2850
3092 3090 3086 3082 3079 3075 3073 3071 3066 3059 3058 3061 3062 3061 3059 3057 3054 3049 3045 3039 3033 3026 3017 3015 3016 3013 3012 3011 3007 3004 3001 2994 2987 2981 2974 2966 2958 2950 2944 2937 2930 2922 2915 2908 2901 2895 2887 2880 2874 2867 2860 2855 2849 2842
3093 3090 3087 3084 3081 3078 3075 3072 3067 3065 3065 3065 3064 3063 3060 3057 3054 3051 3046 3041 3035 3028 3022 3019 3019 3016 3014 3010 3006 3002 2996 2991 2985 2978 2971 2964 2956 2949 2942 2934 2927 2919 2912 2904 2896 2889 2881 2873 2866 2858 2851 2845 2839 2833
3095 3092 3089 3086 3083 3080 3076 3074 3071 3070 3069 3067 3065 3063 3061 3059 3055 3053 3049 3043 3038 3033 3026 3022 3022 3018 3015 3011 3005 3000 2994 2987 2981 2976 2969 2962 2954 2946 2937 2930 2923 2915 2907 2899 2890 2881 2874 2866 2858 2850 2843 2836 2829 2822
3097 3094 3091 3088 3085 3082 3078 3077 3074 3072 3071 3071 3067 3065 3062 3059 3056 3054 3050 3045 3040 3034 3030 3026 3023 3019 3015 3010 3005 2998 2992 2985 2978 2971 2965 2958 2950 2941 2933 2924 2917 2908 2900 2892 2885 2876 2867 2859 2852 2844 2836 2827 2819 2813
3098 3095 3092 3090 3086 3084 3081 3079 3078 3076 3073 3071 3068 3065 3062 3060 3058 3055 3051 3046 3042 3034 3031 3029 3025 3020 3014 3010 3004 2998 2991 2983 2975 2967 2959 2951 2944 2936 2929 2920 2911 2902 2893 2884 2876 2867 2859 2850 2842 2834 2826 2818 2810 2802
3098 3097 3094 3091 3088 3085 3084 3082 3080 3078 3075 3072 3069 3065 3063 3061 3058 3055 3052 3046 3040 3037 3034 3029 3023 3018 3014 3009 3002 2997 2990 2983 2975 2967 2960 2951 2941 2932 2923 2913 2903 2895 2887 2877 2868 2859 2851 2842 2833 2825 2816 2808 2800 2792
3100 3099 3096 3092 3089 3087 3088 3083 3081 3078 3076 3073 3070 3067 3065 3062 3059 3057 3053 3048 3044 3039 3034 3028 3023 3018 3013 3008 3001 2995 2988 2980 2972 2963 2954 2946 2937 2927 2917 2908 2898 2888 2879 2871 2862 2853 2843 2835 2826 2816 2808 2800 2791 2784
3101 3099 3096 3094 3092 3090 3088 3085 3083 3080 3078 3075 3071 3068 3065 3062 3061 3058 3055 3049 3045 3040 3034 3028 3022 3017 3014 3008 2999 2992 2984 2977 2969 2960 2949 2938 2930 2922 2913 2903 2892 2882 2872 2863 2855 2846 2835 2826 2818 2808 2799 2792 2785 2778
3104 3102 3100 3097 3094 3091 3089 3087 3085 3082 3079 3076 3072 3069 3066 3063 3061 3058 3053 3048 3043 3038 3032 3026 3020 3013 3007 3001 2995 2988 2980 2972 2964 2955 2946 2936 2926 2917 2907 2898 2888 2876 2866 2855 2845 2836 2827 2819 2810 2801 2794 2786 2779 2773
3104 3104 3103 3099 3095 3093 3090 3088 3086 3084 3080 3077 3074 3070 3067 3064 3062 3058 3053 3047 3042 3035 3029 3023 3018 3014 3009 3001 2993 2986 2978 2970 2963 2955 2946 2934 2922 2910 2899 2887 2877 2870 2860 2849 2838 2829 2820 2811 2803 2796 2788 2781 2775 2769
3107 3105 3103 3099 3097 3094 3091 3089 3086 3084 3081 3079 3076 3071 3068 3067 3065 3062 3054 3048 3042 3036 3029 3024 3019 3013 3006 3000 2993 2985 2977 2970 2961 2952 2943 2932 2920 2908 2894 2883 2873 2864 2853 2844 2834 2824 2814 2806 2798 2790 2783 2776 2769 2762
3108 3106 3104 3101 3098 3095 3092 3090 3087 3085 3083 3081 3077 3075 3073 3071 3067 3062 3056 3050 3044 3037 3032 3027 3021 3014 3007 3000 2991 2983 2974 2964 2956 2947 2937 2927 2914 2903 2893 2884 2873 2862 2851 2840 2829 2820 2811 2801 2792 2784 2777 2770 2763 2756
3109 3107 3105 3102 3099 3096 3093 3091 3089 3086 3085 3082 3079 3075 3073 3069 3065 3060 3055 3049 3043 3037 3032 3027 3021 3014 3007 3000 2991 2980 2969 2958 2946 2936 2926 2915 2908 2901 2890 2879 2867 2856 2846 2837 2827 2816 2807 2797 2788 2779 2771 2764 2757 2750
3112 3109 3106 3103 3100 3097 3095 3092 3090 3087 3085 3083 3080 3076 3073 3069 3066 3060 3055 3049 3043 3036 3029 3023 3017 3010 3002 2994 2987 2979 2968 2958 2947 2934 2922 2913 2903 2893 2884 2872 2861 2852 2842 2833 2823 2814 2805 2796 2787 2778 2769 2760 2752 2745
3112 3110 3106 3104 3101 3098 3095 3093 3090 3088 3085 3083 3080 3077 3074 3070 3066 3061 3054 3048 3041 3035 3030 3025 3018 3009 3001 2992 2983 2975 2968 2959 2947 2937 2925 2914 2904 2893 2881 2870 2860 2851 2840 2831 2821 2812 2802 2792 2781 2772 2763 2755 2747 2740
3113 3110 3107 3104 3102 3099 3095 3092 3090 3088 3085 3083 3080 3077 3074 3070 3066 3060 3053 3046 3041 3036 3029 3021 3015 3008 3000 2993 2985 2976 2966 2955 2944 2934 2922 2912 2902 2891 2881 2871 2862 2852 2842 2833 2822 2812 2801 2789 2779 2770 2761 2753 2745 2737
3113 3110 3107 3104 3102 3099 3096 3092 3090 3087 3085 3082 3079 3076 3073 3069 3062 3056 3050 3043 3038 3033 3027 3022 3015 3008 3001 2993 2985 2976 2966 2956 2945 2934 2924 2914 2903 2892 2882 2873 2863 2854 2844 2834 2823 2812 2801 2791 2780 2770 2761 2752 2744 2736